Theta_e
314 315 317 321 318 317 318 319 316 315 316 315 317 318 318 318 320 319 321 323 324 315 315 315 316 327 333 332 330 328 326 326 324 326 325 324 322 321 321 322 322 322 322 319 319 320 319 320 321
313 316 319 323 318 316 313 315 318 316 315 317 317 317 317 319 320 321 322 322 323 320 314 313 315 318 334 333 330 329 331 331 330 331 330 326 319 319 322 322 321 321 320 318 314 313 312 312 312
316 318 321 315 313 314 313 315 315 315 316 317 317 318 318 319 320 321 321 321 321 321 317 314 314 313 324 327 329 329 333 332 332 332 329 322 320 320 320 319 318 315 313 312 312 310 307 306 306
316 319 317 318 318 316 315 316 313 315 315 316 316 315 318 320 319 320 320 321 321 321 318 315 313 313 320 322 325 331 331 333 331 326 316 317 317 315 314 313 312 311 311 308 305 304 304 304 305
317 318 312 313 313 313 312 314 314 314 315 315 316 316 316 317 317 319 318 320 321 320 319 316 314 314 319 331 332 332 331 330 326 317 315 314 314 313 311 311 309 306 304 304 304 304 305 306 306
316 315 315 314 312 312 312 315 314 313 314 314 315 315 317 317 317 317 318 318 320 320 319 316 314 314 316 318 316 314 315 315 317 314 313 312 311 309 307 306 304 304 303 304 304 306 306 307 307
315 313 313 313 314 314 315 314 314 314 314 315 316 315 317 317 317 317 317 317 317 319 319 318 314 314 314 314 314 314 314 314 313 312 311 310 308 306 304 304 303 304 304 305 306 307 307 307 307
317 313 314 312 314 314 314 314 315 315 316 316 316 315 316 318 318 318 317 317 317 317 318 319 316 314 313 313 314 314 314 313 311 311 309 307 306 304 303 303 303 304 305 306 306 306 306 306 306
316 312 312 313 311 313 314 314 315 315 316 315 317 317 318 317 317 317 317 317 317 317 316 317 318 315 314 313 313 314 313 312 310 309 308 307 305 303 303 303 304 304 305 305 305 305 306 306 306
314 311 311 310 309 312 314 314 316 315 315 315 316 317 317 317 317 317 317 317 317 317 317 316 317 317 314 314 313 314 313 312 310 308 308 306 304 303 303 303 304 305 305 305 305 305 305 305 305
313 313 310 312 312 313 313 313 315 314 313 317 317 318 317 317 316 316 316 316 317 317 317 317 316 316 316 314 314 313 313 312 310 308 308 306 304 303 303 303 303 304 304 304 304 304 304 304 304
314 314 313 314 315 315 313 315 313 315 316 316 317 317 317 317 317 316 316 316 316 316 317 317 316 316 316 315 314 314 313 312 310 309 308 307 304 303 303 303 303 303 303 304 304 304 304 304 304
313 313 315 316 315 315 315 314 313 314 315 315 316 316 316 315 316 316 315 316 315 316 316 316 316 316 316 315 315 314 313 312 311 309 308 307 305 304 303 303 303 303 304 304 304 304 304 304 304
312 313 313 314 314 314 313 313 312 314 314 314 314 314 314 315 315 315 315 316 316 316 316 316 316 316 316 316 315 315 314 313 311 309 308 307 306 304 303 303 303 303 303 303 303 303 303 303 303
313 312 308 309 311 310 311 312 309 314 314 314 314 314 314 315 314 315 316 317 317 316 315 315 315 315 316 316 315 315 314 314 312 311 309 307 306 304 303 302 302 302 302 302 303 303 303 302 302
309 308 309 309 308 310 312 311 311 312 313 313 314 314 314 314 314 314 315 316 317 316 316 316 315 315 315 315 315 315 314 314 313 311 309 308 306 304 302 302 301 301 301 302 302 302 302 301 301
306 308 306 307 307 309 310 310 310 312 311 312 312 312 313 313 314 314 314 314 314 314 316 316 316 315 315 315 315 315 314 314 313 312 310 309 306 304 302 301 301 300 300 301 301 301 301 301 301
308 306 305 307 309 306 308 309 309 310 310 309 310 310 311 312 314 314 314 314 314 314 314 314 314 315 315 314 314 314 314 313 313 312 311 310 307 305 303 302 300 300 300 300 300 301 301 300 300
307 305 305 305 307 306 309 308 308 309 308 309 310 310 309 310 313 314 313 313 313 313 313 313 313 313 313 314 313 313 314 314 313 312 311 310 307 306 305 302 301 300 300 300 300 300 300 300 300
307 308 308 308 307 305 306 308 309 309 309 310 310 310 310 312 314 314 313 312 312 313 313 313 313 313 312 312 312 312 313 313 313 312 311 309 307 306 304 303 302 301 300 299 298 299 299 299 299
305 307 308 307 305 305 305 308 307 308 308 310 311 310 312 312 313 313 313 313 313 313 312 312 312 313 313 312 311 311 311 310 312 312 311 310 308 307 305 303 302 301 300 299 299 299 299 299 299
309 306 307 307 307 309 307 310 311 312 310 309 309 312 312 312 312 312 312 312 313 313 313 314 313 312 311 311 311 312 311 312 313 313 312 311 309 307 304 303 302 301 300 299 299 298 298 298 298
308 308 307 306 306 307 307 308 308 308 311 309 308 312 311 311 311 311 312 313 313 314 314 313 313 312 310 310 309 309 310 311 310 309 311 310 309 307 305 304 302 301 300 299 298 298 297 297 297
307 308 306 303 305 309 308 309 310 308 310 309 309 311 310 311 312 311 312 313 313 313 312 312 313 313 311 309 308 309 308 308 308 309 309 309 308 307 306 305 303 302 300 299 298 297 296 297 297
307 307 310 311 309 315 306 307 312 309 311 308 306 309 310 311 311 312 312 311 310 309 310 312 313 311 309 309 307 306 307 307 307 307 307 307 308 308 307 306 304 302 301 300 298 297 296 296 296
307 308 313 313 312 316 306 311 312 308 309 309 308 309 311 313 310 308 309 309 309 310 310 311 312 311 308 306 305 305 305 305 305 306 306 306 307 307 308 307 306 304 302 301 299 297 296 296 296
306 309 308 310 297 306 313 313 311 306 307 307 307 310 307 304 307 307 307 305 306 307 308 308 310 308 307 305 304 303 303 303 303 304 304 304 304 305 305 306 306 305 303 302 300 298 298 296 296
307 306 309 308 313 315 313 312 312 310 310 306 305 301 301 302 303 303 303 304 304 305 306 307 306 306 306 306 305 304 303 302 302 302 302 302 303 304 304 305 305 305 304 302 300 298 297 296 295
312 308 307 307 310 316 316 314 310 309 305 302 302 301 298 298 298 299 300 299 298 299 300 301 302 302 303 305 306 306 304 302 301 301 302 302 302 302 302 304 304 304 304 302 300 299 298 296 295
307 310 310 312 313 311 313 314 311 308 303 299 298 296 294 293 293 293 294 295 296 296 296 295 297 298 297 297 301 303 303 303 301 300 301 302 303 302 302 301 302 303 303 302 301 299 299 298 296
Wind_Speed
5 4 3 2 3 4 3 5 2 3 2 3 9 5 5 3 5 3 1 7 10 18 21 22 21 20 16 17 16 15 13 14 13 11 11 12 13 10 9 8 8 8 8 8 6 6 6 6 6
3 2 1 2 3 2 4 3 4 3 2 4 6 4 2 5 12 6 4 10 11 16 20 20 20 21 21 20 17 15 14 13 12 11 12 14 10 9 8 8 9 9 10 9 7 7 7 7 7
1 1 0 3 2 3 4 4 3 1 3 4 3 5 4 3 4 5 5 11 12 16 19 19 20 21 22 20 18 16 17 15 13 15 16 13 9 8 9 10 11 11 10 9 8 8 7 7 5
1 1 4 3 4 6 5 2 4 4 3 7 4 5 6 9 4 6 6 11 13 17 20 19 19 20 19 19 18 17 17 17 17 16 11 11 11 11 10 11 10 9 9 8 7 6 4 3 2
2 2 3 2 4 5 5 7 4 2 2 2 5 3 5 10 10 11 7 11 14 16 19 21 20 19 20 20 21 20 22 18 18 14 12 12 12 12 11 11 9 9 7 6 4 3 2 1 1
3 3 3 2 4 5 7 7 3 3 4 3 4 4 6 9 8 10 10 10 14 15 17 20 21 22 21 21 21 19 17 17 17 14 13 13 12 11 11 10 9 8 7 4 3 2 1 1 1
5 4 3 3 4 6 4 3 3 3 2 6 4 2 5 9 8 7 10 12 14 16 18 20 23 23 23 22 21 21 18 18 17 15 14 13 12 11 11 10 9 8 6 5 4 3 2 2 2
3 4 3 4 3 6 2 2 3 4 4 3 5 5 4 4 7 8 10 14 16 18 20 21 23 24 24 24 23 22 19 19 17 16 15 13 12 11 11 10 9 8 8 6 5 4 3 2 2
4 3 2 5 5 5 3 1 3 3 7 7 9 16 19 19 18 15 15 17 19 21 22 23 25 26 25 25 25 24 23 21 19 18 17 15 14 13 13 13 12 11 10 8 7 6 5 4 3
4 4 8 7 6 5 4 6 9 4 8 17 16 22 23 24 23 22 22 21 22 23 23 25 27 28 28 27 27 26 25 24 22 21 19 17 16 16 16 15 14 13 11 9 7 6 4 4 2
6 6 5 7 17 11 6 6 9 5 7 26 22 21 21 19 23 26 25 25 25 23 25 26 28 29 29 29 29 29 28 26 26 24 21 20 20 20 19 18 16 14 12 10 8 6 5 3 3
3 14 11 5 7 6 5 7 5 14 30 37 36 29 30 32 31 31 30 28 27 27 25 28 29 30 32 31 32 31 31 30 29 27 24 23 23 22 21 20 19 17 14 12 9 7 5 4 4
4 6 14 22 20 23 20 24 11 22 43 40 37 35 33 31 31 29 29 27 28 31 30 30 30 32 33 33 34 34 34 34 32 30 28 27 26 25 24 23 22 19 16 14 12 10 7 6 6
3 8 13 14 21 17 8 25 4 26 30 33 30 31 29 28 27 26 28 27 28 27 29 30 32 33 34 35 36 36 37 36 35 34 32 31 30 29 28 26 24 22 19 17 15 12 10 8 7
4 7 7 10 13 8 9 10 11 33 24 27 33 30 28 25 25 24 24 28 27 26 26 27 32 35 37 37 37 39 38 38 39 38 36 35 34 33 32 30 28 26 23 21 18 15 12 10 8
3 0 4 2 6 3 10 11 20 20 16 20 25 31 33 40 39 36 34 31 28 29 26 25 29 34 38 41 41 41 41 40 41 41 39 39 38 37 36 34 32 30 27 24 22 18 15 12 10
2 5 7 9 11 3 7 8 14 18 12 25 37 44 47 48 45 41 38 36 37 35 33 30 31 33 36 41 44 45 45 44 44 43 43 43 41 40 40 37 34 33 31 28 25 22 19 16 14
8 5 6 5 6 5 6 17 14 35 32 35 40 43 42 43 45 38 35 32 33 33 33 37 35 36 37 42 46 48 49 49 49 47 47 46 45 44 43 40 38 37 35 32 30 26 22 19 17
2 5 7 7 9 5 18 18 19 25 27 37 37 38 34 34 34 29 26 24 22 23 26 29 30 33 38 43 48 52 54 53 54 53 51 50 49 47 47 45 43 41 39 35 31 28 26 23 20
8 10 12 9 11 4 10 21 19 25 27 33 35 38 25 31 28 24 23 22 19 15 15 18 23 27 33 39 45 51 54 56 57 57 56 54 52 50 50 49 47 45 41 39 36 34 31 28 24
5 6 10 11 7 5 8 8 5 6 8 21 35 29 30 29 25 21 16 14 20 22 20 18 20 22 26 33 40 48 53 54 57 62 60 58 56 54 53 51 49 47 45 43 40 37 34 31 28
7 9 11 7 3 4 4 8 4 19 15 14 17 20 18 14 11 12 14 19 27 33 35 33 29 26 28 32 37 43 51 56 57 58 59 59 58 57 54 52 51 50 48 46 43 39 37 33 31
9 1 4 4 4 2 1 4 4 1 7 8 6 8 11 12 14 15 16 24 32 38 36 34 33 35 30 32 37 43 47 51 54 53 55 56 59 59 57 55 53 52 50 47 45 43 40 37 34
2 1 3 3 2 3 11 9 4 4 3 5 3 12 19 19 17 15 21 36 42 40 33 34 38 38 37 31 33 39 43 48 51 53 53 51 54 59 59 57 56 54 52 49 46 43 41 39 36
3 5 4 4 1 8 2 3 6 5 5 1 8 20 17 22 24 26 40 42 41 33 33 32 33 35 33 30 29 34 39 41 45 49 51 51 51 54 59 59 58 57 53 51 48 46 43 41 40
6 8 5 5 6 16 3 7 4 8 3 6 12 10 16 28 33 34 34 32 30 31 34 36 30 32 30 27 28 29 34 38 42 45 48 49 48 50 51 56 57 56 54 53 50 48 46 44 42
4 5 2 1 3 3 10 19 8 3 7 12 11 23 31 31 32 31 29 29 29 27 26 29 30 27 24 28 29 26 27 32 38 41 43 46 45 47 48 49 55 56 56 54 53 52 51 49 46
5 2 1 2 2 10 19 19 14 12 13 14 20 27 35 35 33 32 29 27 26 25 25 25 26 28 27 26 26 27 26 28 33 36 39 42 41 43 45 47 49 54 55 55 54 53 51 50 49
7 2 3 3 4 8 12 12 5 8 16 13 12 18 23 28 31 31 30 31 30 29 28 25 27 29 31 31 30 28 25 25 29 33 36 37 37 40 44 45 46 49 53 55 56 56 54 52 51
9 13 13 13 10 10 14 17 10 11 11 15 15 15 20 26 31 34 33 32 32 34 33 34 29 28 31 32 31 31 29 26 26 33 34 34 35 38 41 44 47 48 49 53 57 59 57 54 56
Wind_Direction
238 254 280 317 51 59 272 265 299 248 248 198 147 167 205 209 173 226 241 176 177 188 193 191 191 187 191 199 193 194 198 201 205 211 218 223 223 228 240 246 246 242 249 262 291 312 302 299 299
256 267 296 74 89 42 269 262 250 242 328 171 191 202 250 257 235 275 231 185 176 185 190 192 193 190 190 200 198 197 201 206 206 207 221 241 245 234 225 237 242 255 265 285 292 287 290 288 288
273 299 4 87 102 192 232 219 247 321 214 183 214 240 264 250 245 222 226 194 187 185 190 194 195 194 196 200 200 202 200 202 206 213 221 234 234 236 231 230 239 249 263 272 282 286 287 284 284
164 115 61 87 235 251 224 229 233 294 210 208 212 266 254 256 266 223 232 206 200 190 193 195 195 193 193 195 194 196 198 199 207 218 224 227 232 239 243 245 239 237 243 255 265 267 269 278 303
142 82 56 16 256 265 250 269 263 245 255 193 194 262 255 267 261 250 250 222 210 200 199 198 196 198 190 185 190 195 202 201 212 226 225 229 234 234 232 236 245 250 252 240 229 227 244 292 328
99 84 59 259 259 265 278 275 258 231 237 201 205 251 264 284 284 258 244 231 214 213 211 206 203 206 205 203 206 215 216 217 224 231 230 229 228 227 231 233 232 227 217 215 218 229 252 265 285
125 95 203 238 262 297 244 314 202 225 238 239 210 200 264 285 284 255 237 225 218 218 217 216 212 212 214 216 219 226 219 222 227 229 230 228 228 229 227 223 215 208 207 205 215 226 252 271 268
135 99 160 235 220 269 265 289 263 216 264 242 212 228 256 285 296 270 239 226 226 225 222 220 220 221 220 222 224 230 229 229 227 228 230 229 228 225 219 212 208 205 205 208 214 230 243 259 267
151 70 217 244 175 242 223 250 231 247 262 248 234 252 277 280 280 268 245 238 233 231 227 225 223 224 226 225 227 227 230 233 228 228 231 232 230 223 218 211 208 207 208 211 215 215 217 226 242
149 147 220 213 198 225 230 238 264 230 250 265 249 267 277 276 274 270 264 256 247 241 237 232 228 227 227 227 229 230 232 232 230 230 230 227 225 220 218 216 214 215 218 220 224 229 233 237 240
186 206 217 241 239 258 266 260 243 213 258 264 260 284 292 276 278 270 266 263 263 256 243 239 235 232 231 231 232 233 234 233 232 232 230 227 224 221 220 219 219 219 222 227 228 232 243 261 286
228 242 232 252 247 257 241 267 240 225 264 287 290 286 282 282 279 279 272 267 265 254 250 243 240 238 235 233 234 236 237 236 235 234 232 230 228 225 223 221 219 222 222 224 228 238 255 276 296
220 251 255 258 260 267 274 265 246 248 280 287 287 285 282 281 281 280 278 268 259 253 249 246 242 241 240 237 237 235 236 236 237 236 234 232 230 230 228 226 224 224 225 227 231 236 244 257 274
250 266 273 278 265 257 223 273 207 270 284 288 289 290 290 284 284 279 271 267 261 258 252 249 245 243 241 240 240 239 237 237 236 235 235 234 233 230 229 229 228 227 226 227 227 228 230 237 248
284 305 313 246 261 225 207 284 229 273 285 288 291 292 294 296 292 277 284 271 267 266 261 253 248 245 244 242 242 240 239 238 237 236 235 234 233 231 230 229 227 226 225 225 227 229 228 233 242
295 100 305 303 140 249 168 254 271 286 286 280 287 292 290 289 289 286 289 288 273 265 264 263 253 247 245 244 242 241 239 238 238 236 235 235 233 231 230 228 226 225 224 224 225 225 226 229 234
311 244 220 312 208 139 190 256 268 303 286 278 283 283 285 286 285 284 284 284 285 285 278 269 264 257 250 245 242 241 241 238 238 236 235 235 233 231 230 229 228 226 225 224 224 223 222 224 229
226 232 246 239 284 203 220 256 279 286 288 278 280 279 276 279 287 297 297 295 290 286 281 277 270 263 256 248 243 240 240 238 237 236 235 233 231 230 229 228 227 227 226 224 223 222 221 221 224
170 237 254 257 264 296 278 273 278 276 271 275 275 276 276 284 303 309 315 313 308 299 289 282 276 270 258 248 242 239 239 238 237 235 235 234 232 229 228 227 226 226 227 228 226 223 221 222 222
246 270 271 275 264 196 275 286 279 269 262 265 270 277 284 294 303 322 332 338 332 327 320 302 289 276 267 257 251 246 242 240 240 239 235 232 231 230 230 228 226 226 226 225 225 224 223 221 218
197 225 258 260 316 247 318 280 279 289 263 266 266 275 286 288 305 333 4 31 36 26 9 337 308 292 278 266 256 247 245 243 241 238 236 233 231 230 229 229 228 228 227 226 226 227 227 226 221
264 224 251 271 6 242 25 292 156 280 280 260 294 304 310 336 359 32 44 37 26 9 2 357 348 323 288 268 259 253 247 246 246 244 241 236 232 232 230 230 230 229 229 226 226 225 226 227 228
232 133 210 195 202 351 264 259 269 47 264 290 285 347 20 43 40 42 32 13 3 358 353 356 348 343 317 285 268 259 253 252 251 250 247 241 235 231 231 230 230 230 230 230 228 225 224 225 228
108 36 51 59 125 267 210 192 318 175 231 315 285 5 31 25 17 9 2 352 351 351 353 350 347 344 336 310 279 269 260 255 252 250 247 247 242 234 231 230 231 230 230 230 230 229 228 229 228
114 62 309 308 342 253 330 229 232 235 305 181 356 345 360 13 10 355 354 355 354 355 348 348 346 346 340 326 297 276 266 259 257 256 254 249 246 239 233 232 230 230 230 229 229 230 230 230 231
178 174 186 258 279 290 193 241 208 209 244 76 48 18 360 352 4 8 359 355 352 345 343 343 342 341 346 348 329 302 281 269 261 259 257 255 251 249 241 235 233 232 231 231 229 228 231 231 231
171 185 219 258 91 284 269 277 271 286 78 41 34 1 7 18 8 6 4 6 359 359 357 354 347 346 347 345 342 327 303 283 274 267 263 261 256 252 248 241 236 233 232 231 229 229 229 229 229
173 154 33 17 199 257 275 282 270 318 11 20 26 31 15 14 12 9 8 2 359 358 356 353 353 350 346 335 331 329 319 303 287 276 270 266 263 256 249 244 239 236 233 231 230 231 230 230 231
304 261 218 254 216 251 264 268 90 73 67 58 14 27 20 5 357 353 353 356 356 354 353 351 348 347 341 338 332 322 316 307 296 287 280 270 267 260 255 248 242 239 236 234 231 231 230 231 232
211 236 239 244 235 221 236 246 324 84 82 48 38 30 30 23 14 9 1 353 349 353 353 354 349 344 347 344 337 331 322 308 299 290 284 280 275 263 255 250 248 242 237 234 233 232 231 230 232